Medford, OR

4:36 AM PST on November 19, 2019 (GMT -0800)
Rogue Valley International-Medford

Weather History for KMFR - October, 2019

Change the Weather History Date:

Monday, October 21, 2019

  Actual Average Record
Temperature  
Mean Temperature 56 °F 54 °F  
Max Temperature 70 °F 67 °F 83 °F (2003)
Min Temperature 43 °F 41 °F 26 °F (1933)
Degree Days  
Heating Degree Days 8 11  
Month to date heating degree days 237 157  
Since 1 July heating degree days 328 226  
Cooling Degree Days 0 0  
Month to date cooling degree days 0 8  
Year to date cooling degree days 932 827  
Growing Degree Days 6 (Base 50)    
Moisture  
Dew Point 42 °F    
Average Humidity 71    
Maximum Humidity 93    
Minimum Humidity 0    
Precipitation  
Precipitation 0.00 in 0.04 in 1.22 in (1973)
Month to date precipitation 0.65 0.60  
Year to date precipitation 17.23 11.31  
Snow  
Snow 0.00 in 0.00 in - ()
Month to date snowfall 0.0 0.0  
Since 1 July snowfall 0.0 0.0  
Snow Depth 0.00 in    
Sea Level Pressure  
Sea Level Pressure 30.33 in    
Wind  
Wind Speed 2 mph ()    
Max Wind Speed 9 mph    
Max Gust Speed -    
Visibility 10.0 miles    
Events      
T = Trace of Precipitation, MM = Missing Value Source: Averaged Metar Reports

Daily Weather History Graph

Daily Weather History Graph

Search for Another Location

Airport or City:

Astronomy

Oct. 21, 2019 Rise Set
Actual Time 7:31 AM PDT 6:20 PM PDT
Civil Twilight 7:02 AM PDT 6:48 PM PDT
Nautical Twilight 6:29 AM PDT 7:21 PM PDT
Astronomical Twilight 5:57 AM PDT 7:53 PM PDT
Moon No Moon Rise 2:57 PM PDT (10/21)
Length of Visible Light 11h 46m
Length of Day
10h 49m
Waning Gibbous, 47% of the Moon is Illuminated
Oct 21
Waning Gibbous
Oct 27
New
Nov 4
First Quarter
Nov 12
Full
Nov 19
Last Quarter

Hourly Weather History & Observations

Time (PDT) Temp. Windchill Dew Point Humidity Pressure Visibility Wind Dir Wind Speed Gust Speed Precip Events Conditions
12:53 AM 45.0 °F - 43.0 °F 93% 30.25 in 10.0 mi Calm Calm - N/A   Clear
1:53 AM 44.1 °F 42.5 °F 42.1 °F 93% 30.27 in 10.0 mi NE 3.5 mph - N/A   Clear
2:53 AM 43.0 °F 40.3 °F 41.0 °F 93% 30.30 in 10.0 mi SSE 4.6 mph - N/A   Clear
3:53 AM 43.0 °F 41.3 °F 41.0 °F 93% 30.29 in 10.0 mi South 3.5 mph - N/A   Scattered Clouds
4:53 AM 43.0 °F - 41.0 °F 93% 30.30 in 10.0 mi Calm Calm - N/A   Overcast
5:53 AM 44.1 °F - 41.0 °F 89% 30.32 in 10.0 mi Calm Calm - N/A   Overcast
6:53 AM 45.0 °F - 42.1 °F 90% 30.34 in 10.0 mi Calm Calm - N/A   Overcast
7:53 AM 44.1 °F - 41.0 °F 89% 30.35 in 10.0 mi Calm Calm - N/A   Mostly Cloudy
8:53 AM 46.0 °F - 42.1 °F 86% 30.38 in 10.0 mi Calm Calm - N/A   Overcast
9:53 AM 48.0 °F - 44.1 °F 86% 30.38 in 10.0 mi Calm Calm - N/A   Scattered Clouds
10:53 AM 52.0 °F - 45.0 °F 77% 30.39 in 10.0 mi Calm Calm - N/A   Partly Cloudy
11:53 AM 57.0 °F - 46.0 °F 67% 30.38 in 10.0 mi Calm Calm - N/A   Clear
12:53 PM 60.1 °F - 46.0 °F 60% 30.35 in 10.0 mi Calm Calm - N/A   Clear
1:53 PM 63.0 °F - 45.0 °F 52% 30.33 in 10.0 mi Calm Calm - N/A   Clear
2:53 PM 66.0 °F - 39.9 °F 38% 30.31 in 10.0 mi Calm Calm - N/A   Clear
3:53 PM 69.1 °F - 37.9 °F 32% 30.31 in 10.0 mi North 3.5 mph - N/A   Clear
4:53 PM 70.0 °F - 42.1 °F 36% 30.32 in 10.0 mi NNE 3.5 mph - N/A   Clear
5:53 PM 68.0 °F - 42.1 °F 39% 30.31 in 10.0 mi Calm Calm - N/A   Clear
6:53 PM 61.0 °F - 43.0 °F 52% 30.32 in 10.0 mi SSW 6.9 mph - N/A   Clear
7:53 PM 57.9 °F - 41.0 °F 53% 30.34 in 10.0 mi South 9.2 mph - N/A   Clear
8:53 PM 54.0 °F - 42.1 °F 64% 30.36 in 10.0 mi North 3.5 mph - N/A   Clear
9:53 PM 51.1 °F - 42.1 °F 71% 30.37 in 10.0 mi Calm Calm - N/A   Clear
10:53 PM 51.1 °F - 42.1 °F 71% 30.37 in 10.0 mi SSE 3.5 mph - N/A   Clear
11:53 PM 46.9 °F - 41.0 °F 80% 30.38 in 10.0 mi NE 3.5 mph - N/A   Clear